Year,Month,Day,Hour,Minute,Value (Times are PST for temperature in C)
2016,08,26,00,00,15.20
2016,08,26,00,01,15.20
2016,08,26,00,02,15.20
2016,08,26,00,03,15.10
2016,08,26,00,04,15.10
2016,08,26,00,05,15.00
2016,08,26,00,06,15.00
2016,08,26,00,07,15.00
2016,08,26,00,08,14.90
2016,08,26,00,09,14.90
2016,08,26,00,10,14.90
2016,08,26,00,11,14.80
2016,08,26,00,12,14.80
2016,08,26,00,13,14.70
2016,08,26,00,14,14.70
2016,08,26,00,15,14.70
2016,08,26,00,16,14.70
2016,08,26,00,17,14.60
2016,08,26,00,18,14.60
2016,08,26,00,19,14.60
2016,08,26,00,20,14.60
2016,08,26,00,21,14.60
2016,08,26,00,22,14.60
2016,08,26,00,23,14.60
2016,08,26,00,24,14.60
2016,08,26,00,25,14.60
2016,08,26,00,26,14.60
2016,08,26,00,27,14.60
2016,08,26,00,28,14.60
2016,08,26,00,29,14.60
2016,08,26,00,30,14.60
2016,08,26,00,31,14.60
2016,08,26,00,32,14.70
2016,08,26,00,33,14.70
2016,08,26,00,34,14.70
2016,08,26,00,35,14.70
2016,08,26,00,36,14.70
2016,08,26,00,37,14.80
2016,08,26,00,38,14.80
2016,08,26,00,39,14.90
2016,08,26,00,40,14.90
2016,08,26,00,41,15.00
2016,08,26,00,42,15.10
2016,08,26,00,43,15.20
2016,08,26,00,44,15.30
2016,08,26,00,45,15.30
2016,08,26,00,46,15.30
2016,08,26,00,47,15.40
2016,08,26,00,48,15.40
2016,08,26,00,49,15.40
2016,08,26,00,50,15.50
2016,08,26,00,51,15.50
2016,08,26,00,52,15.50
2016,08,26,00,53,15.50
2016,08,26,00,54,15.50
2016,08,26,00,55,15.50
2016,08,26,00,56,15.50
2016,08,26,00,57,15.50
2016,08,26,00,58,15.50
2016,08,26,00,59,15.60
2016,08,26,01,00,15.50
2016,08,26,01,01,15.50
2016,08,26,01,02,15.50
2016,08,26,01,03,15.50
2016,08,26,01,04,15.50
2016,08,26,01,05,15.50
2016,08,26,01,06,15.50
2016,08,26,01,07,15.50
2016,08,26,01,08,15.50
2016,08,26,01,09,15.40
2016,08,26,01,10,15.40
2016,08,26,01,11,15.40
2016,08,26,01,12,15.30
2016,08,26,01,13,15.30
2016,08,26,01,14,15.30
2016,08,26,01,15,15.20
2016,08,26,01,16,15.20
2016,08,26,01,17,15.20
2016,08,26,01,18,15.20
2016,08,26,01,19,15.10
2016,08,26,01,20,15.10
2016,08,26,01,21,15.10
2016,08,26,01,22,15.00
2016,08,26,01,23,15.00
2016,08,26,01,24,15.00
2016,08,26,01,25,15.00
2016,08,26,01,26,15.00
2016,08,26,01,27,15.00
2016,08,26,01,28,15.00
2016,08,26,01,29,15.00
2016,08,26,01,30,15.00
2016,08,26,01,31,15.10
2016,08,26,01,32,15.10
2016,08,26,01,33,15.10
2016,08,26,01,34,15.10
2016,08,26,01,35,15.10
2016,08,26,01,36,15.10
2016,08,26,01,37,15.10
2016,08,26,01,38,15.10
2016,08,26,01,39,15.10
2016,08,26,01,40,15.10
2016,08,26,01,41,15.10
2016,08,26,01,42,15.10
2016,08,26,01,43,15.10
2016,08,26,01,44,15.10
2016,08,26,01,45,15.10
2016,08,26,01,46,15.10
2016,08,26,01,47,15.10
2016,08,26,01,48,15.10
2016,08,26,01,49,15.10
2016,08,26,01,50,15.10
2016,08,26,01,51,15.10
2016,08,26,01,52,15.00
2016,08,26,01,53,15.00
2016,08,26,01,54,15.10
2016,08,26,01,55,15.00
2016,08,26,01,56,15.00
2016,08,26,01,57,15.00
2016,08,26,01,58,15.10
2016,08,26,01,59,15.10
2016,08,26,02,00,15.10
2016,08,26,02,01,15.10
2016,08,26,02,02,15.10
2016,08,26,02,03,15.10
2016,08,26,02,04,15.20
2016,08,26,02,05,15.20
2016,08,26,02,06,15.20
2016,08,26,02,07,15.30
2016,08,26,02,08,15.30
2016,08,26,02,09,15.30
2016,08,26,02,10,15.30
2016,08,26,02,11,15.30
2016,08,26,02,12,15.30
2016,08,26,02,13,15.30
2016,08,26,02,14,15.30
2016,08,26,02,15,15.30
2016,08,26,02,16,15.30
2016,08,26,02,17,15.30
2016,08,26,02,18,15.40
2016,08,26,02,19,15.40
2016,08,26,02,20,15.50
2016,08,26,02,21,15.70
2016,08,26,02,22,15.80
2016,08,26,02,23,16.00
2016,08,26,02,24,16.20
2016,08,26,02,25,16.40
2016,08,26,02,26,16.50
2016,08,26,02,27,16.60
2016,08,26,02,28,16.70
2016,08,26,02,29,16.80
2016,08,26,02,30,16.80
2016,08,26,02,31,16.90
2016,08,26,02,32,16.90
2016,08,26,02,33,16.90
2016,08,26,02,34,17.00
2016,08,26,02,35,17.00
2016,08,26,02,36,17.10
2016,08,26,02,37,17.10
2016,08,26,02,38,17.10
2016,08,26,02,39,17.10
2016,08,26,02,40,17.00
2016,08,26,02,41,17.00
2016,08,26,02,42,16.90
2016,08,26,02,43,16.90
2016,08,26,02,44,16.90
2016,08,26,02,45,16.80
2016,08,26,02,46,16.80
2016,08,26,02,47,16.80
2016,08,26,02,48,16.70
2016,08,26,02,49,16.70
2016,08,26,02,50,16.60
2016,08,26,02,51,16.60
2016,08,26,02,52,16.60
2016,08,26,02,53,16.60
2016,08,26,02,54,16.50
2016,08,26,02,55,16.50
2016,08,26,02,56,16.50
2016,08,26,02,57,16.40
2016,08,26,02,58,16.40
2016,08,26,02,59,16.40
2016,08,26,03,00,16.40
2016,08,26,03,01,16.40
2016,08,26,03,02,16.30
2016,08,26,03,03,16.30
2016,08,26,03,04,16.30
2016,08,26,03,05,16.30
2016,08,26,03,06,16.30
2016,08,26,03,07,16.20
2016,08,26,03,08,16.20
2016,08,26,03,09,16.20
2016,08,26,03,10,16.20
2016,08,26,03,11,16.20
2016,08,26,03,12,16.20
2016,08,26,03,13,16.20
2016,08,26,03,14,16.30
2016,08,26,03,15,16.30
2016,08,26,03,16,16.30
2016,08,26,03,17,16.30
2016,08,26,03,18,16.30
2016,08,26,03,19,16.40
2016,08,26,03,20,16.50
2016,08,26,03,21,16.50
2016,08,26,03,22,16.60
2016,08,26,03,23,16.70
2016,08,26,03,24,16.80
2016,08,26,03,25,16.90
2016,08,26,03,26,17.00
2016,08,26,03,27,17.00
2016,08,26,03,28,17.10
2016,08,26,03,29,17.10
2016,08,26,03,30,17.10
2016,08,26,03,31,17.20
2016,08,26,03,32,17.20
2016,08,26,03,33,17.20
2016,08,26,03,34,17.30
2016,08,26,03,35,17.30
2016,08,26,03,36,17.40
2016,08,26,03,37,17.40
2016,08,26,03,38,17.50
2016,08,26,03,39,17.60
2016,08,26,03,40,17.60
2016,08,26,03,41,17.60
2016,08,26,03,42,17.50
2016,08,26,03,43,17.50
2016,08,26,03,44,17.50
2016,08,26,03,45,17.50
2016,08,26,03,46,17.40
2016,08,26,03,47,17.40
2016,08,26,03,48,17.40
2016,08,26,03,49,17.30
2016,08,26,03,50,17.30
2016,08,26,03,51,17.30
2016,08,26,03,52,17.20
2016,08,26,03,53,17.20
2016,08,26,03,54,17.10
2016,08,26,03,55,17.10
2016,08,26,03,56,17.00
2016,08,26,03,57,17.00
2016,08,26,03,58,16.90
2016,08,26,03,59,16.90
2016,08,26,04,00,16.80
2016,08,26,04,01,16.80
2016,08,26,04,02,16.70
2016,08,26,04,03,16.70
2016,08,26,04,04,16.70
2016,08,26,04,05,16.60
2016,08,26,04,06,16.60
2016,08,26,04,07,16.50
2016,08,26,04,08,16.50
2016,08,26,04,09,16.40
2016,08,26,04,10,16.40
2016,08,26,04,11,16.40
2016,08,26,04,12,16.30
2016,08,26,04,13,16.30
2016,08,26,04,14,16.30
2016,08,26,04,15,16.20
2016,08,26,04,16,16.20
2016,08,26,04,17,16.20
2016,08,26,04,18,16.20
2016,08,26,04,19,16.20
2016,08,26,04,20,16.20
2016,08,26,04,21,16.20
2016,08,26,04,22,16.20
2016,08,26,04,23,16.20
2016,08,26,04,24,16.20
2016,08,26,04,25,16.20
2016,08,26,04,26,16.20
2016,08,26,04,27,16.20
2016,08,26,04,28,16.20
2016,08,26,04,29,16.20
2016,08,26,04,30,16.20
2016,08,26,04,31,16.30
2016,08,26,04,32,16.30
2016,08,26,04,33,16.30
2016,08,26,04,34,16.30
2016,08,26,04,35,16.30
2016,08,26,04,36,16.30
2016,08,26,04,37,16.30
2016,08,26,04,38,16.30
2016,08,26,04,39,16.30
2016,08,26,04,40,16.30
2016,08,26,04,41,16.30
2016,08,26,04,42,16.30
2016,08,26,04,43,16.20
2016,08,26,04,44,16.20
2016,08,26,04,45,16.20
2016,08,26,04,46,16.20
2016,08,26,04,47,16.20
2016,08,26,04,48,16.20
2016,08,26,04,49,16.20
2016,08,26,04,50,16.30
2016,08,26,04,51,16.30
2016,08,26,04,52,16.30
2016,08,26,04,53,16.30
2016,08,26,04,54,16.30
2016,08,26,04,55,16.30
2016,08,26,04,56,16.30
2016,08,26,04,57,16.40
2016,08,26,04,58,16.40
2016,08,26,04,59,16.50
2016,08,26,05,00,16.50
2016,08,26,05,01,16.50
2016,08,26,05,02,16.60
2016,08,26,05,03,16.70
2016,08,26,05,04,16.70
2016,08,26,05,05,16.80
2016,08,26,05,06,16.80
2016,08,26,05,07,16.90
2016,08,26,05,08,16.90
2016,08,26,05,09,16.90
2016,08,26,05,10,16.90
2016,08,26,05,11,17.00
2016,08,26,05,12,17.00
2016,08,26,05,13,17.00
2016,08,26,05,14,17.00
2016,08,26,05,15,17.00
2016,08,26,05,16,17.00
2016,08,26,05,17,17.00
2016,08,26,05,18,17.00
2016,08,26,05,19,17.00
2016,08,26,05,20,17.00
2016,08,26,05,21,17.00
2016,08,26,05,22,17.00
2016,08,26,05,23,16.90
2016,08,26,05,24,16.90
2016,08,26,05,25,16.90
2016,08,26,05,26,16.90
2016,08,26,05,27,16.90
2016,08,26,05,28,16.90
2016,08,26,05,29,16.80
2016,08,26,05,30,16.80
2016,08,26,05,31,16.80
2016,08,26,05,32,16.80
2016,08,26,05,33,16.70
2016,08,26,05,34,16.70
2016,08,26,05,35,16.70
2016,08,26,05,36,16.60
2016,08,26,05,37,16.60
2016,08,26,05,38,16.60
2016,08,26,05,39,16.60
2016,08,26,05,40,16.60
2016,08,26,05,41,16.60
2016,08,26,05,42,16.70
2016,08,26,05,43,16.70
2016,08,26,05,44,16.60
2016,08,26,05,45,16.60
2016,08,26,05,46,16.60
2016,08,26,05,47,16.60
2016,08,26,05,48,16.60
2016,08,26,05,49,16.50
2016,08,26,05,50,16.50
2016,08,26,05,51,16.40
2016,08,26,05,52,16.40
2016,08,26,05,53,16.30
2016,08,26,05,54,16.30
2016,08,26,05,55,16.30
2016,08,26,05,56,16.20
2016,08,26,05,57,16.10
2016,08,26,05,58,16.00
2016,08,26,05,59,15.90
2016,08,26,06,00,15.70
2016,08,26,06,01,15.60
2016,08,26,06,02,15.50
2016,08,26,06,03,15.40
2016,08,26,06,04,15.30
2016,08,26,06,05,15.20
2016,08,26,06,06,15.10
2016,08,26,06,07,14.90
2016,08,26,06,08,14.90
2016,08,26,06,09,14.80
2016,08,26,06,10,14.70
2016,08,26,06,11,14.60
2016,08,26,06,12,14.60
2016,08,26,06,13,14.50
2016,08,26,06,14,14.40
2016,08,26,06,15,14.40
2016,08,26,06,16,14.30
2016,08,26,06,17,14.30
2016,08,26,06,18,14.30
2016,08,26,06,19,14.30
2016,08,26,06,20,14.30
2016,08,26,06,21,14.20
2016,08,26,06,22,14.20
2016,08,26,06,23,14.20
2016,08,26,06,24,14.20
2016,08,26,06,25,14.10
2016,08,26,06,26,14.10
2016,08,26,06,27,14.10
2016,08,26,06,28,14.10
2016,08,26,06,29,14.00
2016,08,26,06,30,14.00
2016,08,26,06,31,14.00
2016,08,26,06,32,13.90
2016,08,26,06,33,13.90
2016,08,26,06,34,13.90
2016,08,26,06,35,13.90
2016,08,26,06,36,13.90
2016,08,26,06,37,13.80
2016,08,26,06,38,13.80
2016,08,26,06,39,13.80
2016,08,26,06,40,13.80
2016,08,26,06,41,13.80
2016,08,26,06,42,13.80
2016,08,26,06,43,13.80
2016,08,26,06,44,13.80
2016,08,26,06,45,13.80
2016,08,26,06,46,13.80
2016,08,26,06,47,13.80
2016,08,26,06,48,13.80
2016,08,26,06,49,13.80
2016,08,26,06,50,13.80
2016,08,26,06,51,13.80
2016,08,26,06,52,13.80
2016,08,26,06,53,13.80
2016,08,26,06,54,13.90
2016,08,26,06,55,13.90
2016,08,26,06,56,14.00
2016,08,26,06,57,14.00
2016,08,26,06,58,14.00
2016,08,26,06,59,14.10
2016,08,26,07,00,14.10
2016,08,26,07,01,14.10
2016,08,26,07,02,14.10
2016,08,26,07,03,14.20
2016,08,26,07,04,14.20
2016,08,26,07,05,14.10
2016,08,26,07,06,14.10
2016,08,26,07,07,14.10
2016,08,26,07,08,14.10
2016,08,26,07,09,14.10
2016,08,26,07,10,14.10
2016,08,26,07,11,14.10
2016,08,26,07,12,14.10
2016,08,26,07,13,14.20
2016,08,26,07,14,14.20
2016,08,26,07,15,14.20
2016,08,26,07,16,14.20
2016,08,26,07,17,14.20
2016,08,26,07,18,14.20
2016,08,26,07,19,14.20
2016,08,26,07,20,14.20
2016,08,26,07,21,14.20
2016,08,26,07,22,14.20
2016,08,26,07,23,14.20
2016,08,26,07,24,14.20
2016,08,26,07,25,14.20
2016,08,26,07,26,14.20
2016,08,26,07,27,14.20
2016,08,26,07,28,14.20
2016,08,26,07,29,14.20
2016,08,26,07,30,14.20
2016,08,26,07,31,14.30
2016,08,26,07,32,14.30
2016,08,26,07,33,14.30
2016,08,26,07,34,14.30
2016,08,26,07,35,14.30
2016,08,26,07,36,14.30
2016,08,26,07,37,14.30
2016,08,26,07,38,14.30
2016,08,26,07,39,14.30
2016,08,26,07,40,14.40
2016,08,26,07,41,14.40
2016,08,26,07,42,14.40
2016,08,26,07,43,14.40
2016,08,26,07,44,14.40
2016,08,26,07,45,14.50
2016,08,26,07,46,14.50
2016,08,26,07,47,14.50
2016,08,26,07,48,14.60
2016,08,26,07,49,14.60
2016,08,26,07,50,14.70
2016,08,26,07,51,14.70
2016,08,26,07,52,14.70
2016,08,26,07,53,14.80
2016,08,26,07,54,14.80
2016,08,26,07,55,14.80
2016,08,26,07,56,14.90
2016,08,26,07,57,14.90
2016,08,26,07,58,15.00
2016,08,26,07,59,15.00
2016,08,26,08,00,15.10
2016,08,26,08,01,15.10
2016,08,26,08,02,15.10
2016,08,26,08,03,15.10
2016,08,26,08,04,15.10
2016,08,26,08,05,15.10
2016,08,26,08,06,15.10
2016,08,26,08,07,15.20
2016,08,26,08,08,15.20
2016,08,26,08,09,15.20
2016,08,26,08,10,15.30
2016,08,26,08,11,15.30
2016,08,26,08,12,15.40
2016,08,26,08,13,15.40
2016,08,26,08,14,15.50
2016,08,26,08,15,15.50
2016,08,26,08,16,15.60
2016,08,26,08,17,15.60
2016,08,26,08,18,15.70
2016,08,26,08,19,15.70
2016,08,26,08,20,15.80
2016,08,26,08,21,15.90
2016,08,26,08,22,16.00
2016,08,26,08,23,16.10
2016,08,26,08,24,16.20
2016,08,26,08,25,16.30
2016,08,26,08,26,16.40
2016,08,26,08,27,16.50
2016,08,26,08,28,16.60
2016,08,26,08,29,16.70
2016,08,26,08,30,16.90
2016,08,26,08,31,17.00
2016,08,26,08,32,17.10
2016,08,26,08,33,17.20
2016,08,26,08,34,17.30
2016,08,26,08,35,17.40
2016,08,26,08,36,17.60
2016,08,26,08,37,17.70
2016,08,26,08,38,17.80
2016,08,26,08,39,17.90
2016,08,26,08,40,18.10
2016,08,26,08,41,18.20
2016,08,26,08,42,18.30
2016,08,26,08,43,18.50
2016,08,26,08,44,18.60
2016,08,26,08,45,18.70
2016,08,26,08,46,18.80
2016,08,26,08,47,18.90
2016,08,26,08,48,19.00
2016,08,26,08,49,19.10
2016,08,26,08,50,19.20
2016,08,26,08,51,19.30
2016,08,26,08,52,19.30
2016,08,26,08,53,19.30
2016,08,26,08,54,19.30
2016,08,26,08,55,19.20
2016,08,26,08,56,19.20
2016,08,26,08,57,19.10
2016,08,26,08,58,19.10
2016,08,26,08,59,19.10
2016,08,26,09,00,19.10
2016,08,26,09,01,19.10
2016,08,26,09,02,19.10
2016,08,26,09,03,19.10
2016,08,26,09,04,19.00
2016,08,26,09,05,19.00
2016,08,26,09,06,18.80
2016,08,26,09,07,18.70
2016,08,26,09,08,18.50
2016,08,26,09,09,18.40
2016,08,26,09,10,18.30
2016,08,26,09,11,18.20
2016,08,26,09,12,18.10
2016,08,26,09,13,18.00
2016,08,26,09,14,17.90
2016,08,26,09,15,17.80
2016,08,26,09,16,17.80
2016,08,26,09,17,17.80
2016,08,26,09,18,17.90
2016,08,26,09,19,17.90
2016,08,26,09,20,18.00
2016,08,26,09,21,18.00
2016,08,26,09,22,18.10
2016,08,26,09,23,18.20
2016,08,26,09,24,18.20
2016,08,26,09,25,18.30
2016,08,26,09,26,18.40
2016,08,26,09,27,18.50
2016,08,26,09,28,18.50
2016,08,26,09,29,18.60
2016,08,26,09,30,18.70
2016,08,26,09,31,18.80
2016,08,26,09,32,18.90
2016,08,26,09,33,19.00
2016,08,26,09,34,19.10
2016,08,26,09,35,19.20
2016,08,26,09,36,19.30
2016,08,26,09,37,19.40
2016,08,26,09,38,19.40
2016,08,26,09,39,19.40
2016,08,26,09,40,19.40
2016,08,26,09,41,19.40
2016,08,26,09,42,19.30
2016,08,26,09,43,19.20
2016,08,26,09,44,19.20
2016,08,26,09,45,19.20
2016,08,26,09,46,19.10
2016,08,26,09,47,19.10
2016,08,26,09,48,19.20
2016,08,26,09,49,19.20
2016,08,26,09,50,19.20
2016,08,26,09,51,19.10
2016,08,26,09,52,19.10
2016,08,26,09,53,19.10
2016,08,26,09,54,19.10
2016,08,26,09,55,19.10
2016,08,26,09,56,19.10
2016,08,26,09,57,19.20
2016,08,26,09,58,19.30
2016,08,26,09,59,19.30
2016,08,26,10,00,19.40
2016,08,26,10,01,19.50
2016,08,26,10,02,19.60
2016,08,26,10,03,19.70
2016,08,26,10,04,19.80
2016,08,26,10,05,19.80
2016,08,26,10,06,19.90
2016,08,26,10,07,20.00
2016,08,26,10,08,20.00
2016,08,26,10,09,20.10
2016,08,26,10,10,20.10
2016,08,26,10,11,20.20
2016,08,26,10,12,20.20
2016,08,26,10,13,20.10
2016,08,26,10,14,20.10
2016,08,26,10,15,20.00
2016,08,26,10,16,19.90
2016,08,26,10,17,19.80
2016,08,26,10,18,19.80
2016,08,26,10,19,19.70
2016,08,26,10,20,19.70
2016,08,26,10,21,19.70
2016,08,26,10,22,19.70
2016,08,26,10,23,19.70
2016,08,26,10,24,19.80
2016,08,26,10,25,19.80
2016,08,26,10,26,19.80
2016,08,26,10,27,19.90
2016,08,26,10,28,20.00
2016,08,26,10,29,20.00
2016,08,26,10,30,19.80
2016,08,26,10,31,19.60
2016,08,26,10,32,19.40
2016,08,26,10,33,19.10
2016,08,26,10,34,18.80
2016,08,26,10,35,18.60
2016,08,26,10,36,18.50
2016,08,26,10,37,18.30
2016,08,26,10,38,18.30
2016,08,26,10,39,18.30
2016,08,26,10,40,18.20
2016,08,26,10,41,18.30
2016,08,26,10,42,18.30
2016,08,26,10,43,18.30
2016,08,26,10,44,18.40
2016,08,26,10,45,18.40
2016,08,26,10,46,18.50
2016,08,26,10,47,18.60
2016,08,26,10,48,18.60
2016,08,26,10,49,18.70
2016,08,26,10,50,18.70
2016,08,26,10,51,18.70
2016,08,26,10,52,18.60
2016,08,26,10,53,18.60
2016,08,26,10,54,18.60
2016,08,26,10,55,18.60
2016,08,26,10,56,18.60
2016,08,26,10,57,18.60
2016,08,26,10,58,18.50
2016,08,26,10,59,18.50
2016,08,26,11,00,18.40
2016,08,26,11,01,18.40
2016,08,26,11,02,18.30
2016,08,26,11,03,18.20
2016,08,26,11,04,18.00
2016,08,26,11,05,17.90
2016,08,26,11,06,17.80
2016,08,26,11,07,17.70
2016,08,26,11,08,17.70
2016,08,26,11,09,17.70
2016,08,26,11,10,17.70
2016,08,26,11,11,17.70
2016,08,26,11,12,17.80
2016,08,26,11,13,17.80
2016,08,26,11,14,17.80
2016,08,26,11,15,17.90
2016,08,26,11,16,17.90
2016,08,26,11,17,17.80
2016,08,26,11,18,17.80
2016,08,26,11,19,17.80
2016,08,26,11,20,17.70
2016,08,26,11,21,17.70
2016,08,26,11,22,17.70
2016,08,26,11,23,17.70
2016,08,26,11,24,17.70
2016,08,26,11,25,17.70
2016,08,26,11,26,17.70
2016,08,26,11,27,17.70
2016,08,26,11,28,17.70
2016,08,26,11,29,17.70
2016,08,26,11,30,17.70
2016,08,26,11,31,17.70
2016,08,26,11,32,17.70
2016,08,26,11,33,17.70
2016,08,26,11,34,17.70
2016,08,26,11,35,17.70
2016,08,26,11,36,17.70
2016,08,26,11,37,17.70
2016,08,26,11,38,17.80
2016,08,26,11,39,17.80
2016,08,26,11,40,17.90
2016,08,26,11,41,18.00
2016,08,26,11,42,18.10
2016,08,26,11,43,18.20
2016,08,26,11,44,18.30
2016,08,26,11,45,18.40
2016,08,26,11,46,18.40
2016,08,26,11,47,18.60
2016,08,26,11,48,18.70
2016,08,26,11,49,18.80
2016,08,26,11,50,18.90
2016,08,26,11,51,19.00
2016,08,26,11,52,19.00
2016,08,26,11,53,19.10
2016,08,26,11,54,19.10
2016,08,26,11,55,19.00
2016,08,26,11,56,18.90
2016,08,26,11,57,18.80
2016,08,26,11,58,18.70
2016,08,26,11,59,18.70
2016,08,26,12,00,18.70
2016,08,26,12,01,18.70
2016,08,26,12,02,18.80
2016,08,26,12,03,18.90
2016,08,26,12,04,19.00
2016,08,26,12,05,19.20
2016,08,26,12,06,19.30
2016,08,26,12,07,19.40
2016,08,26,12,08,19.50
2016,08,26,12,09,19.50
2016,08,26,12,10,19.50
2016,08,26,12,11,19.40
2016,08,26,12,12,19.40
2016,08,26,12,13,19.30
2016,08,26,12,14,19.30
2016,08,26,12,15,19.40
2016,08,26,12,16,19.50
2016,08,26,12,17,19.50
2016,08,26,12,18,19.60
2016,08,26,12,19,19.80
2016,08,26,12,20,19.90
2016,08,26,12,21,20.00
2016,08,26,12,22,20.10
2016,08,26,12,23,20.20
2016,08,26,12,24,20.20
2016,08,26,12,25,20.30
2016,08,26,12,26,20.30
2016,08,26,12,27,20.30
2016,08,26,12,28,20.30
2016,08,26,12,29,20.30
2016,08,26,12,30,20.30
2016,08,26,12,31,20.40
2016,08,26,12,32,20.40
2016,08,26,12,33,20.40
2016,08,26,12,34,20.30
2016,08,26,12,35,20.30
2016,08,26,12,36,20.30
2016,08,26,12,37,20.30
2016,08,26,12,38,20.30
2016,08,26,12,39,20.30
2016,08,26,12,40,20.30
2016,08,26,12,41,20.40
2016,08,26,12,42,20.40
2016,08,26,12,43,20.50
2016,08,26,12,44,20.60
2016,08,26,12,45,20.70
2016,08,26,12,46,20.80
2016,08,26,12,47,20.90
2016,08,26,12,48,21.00
2016,08,26,12,49,21.10
2016,08,26,12,50,21.10
2016,08,26,12,51,21.20
2016,08,26,12,52,21.20
2016,08,26,12,53,21.20
2016,08,26,12,54,21.20
2016,08,26,12,55,21.20
2016,08,26,12,56,21.20
2016,08,26,12,57,21.20
2016,08,26,12,58,21.20
2016,08,26,12,59,21.20
2016,08,26,13,00,21.20
2016,08,26,13,01,21.20
2016,08,26,13,02,21.30
2016,08,26,13,03,21.30
2016,08,26,13,04,21.30
2016,08,26,13,05,21.40
2016,08,26,13,06,21.50
2016,08,26,13,07,21.50
2016,08,26,13,08,21.60
2016,08,26,13,09,21.60
2016,08,26,13,10,21.70
2016,08,26,13,11,21.70
2016,08,26,13,12,21.80
2016,08,26,13,13,21.90
2016,08,26,13,14,21.90
2016,08,26,13,15,21.90
2016,08,26,13,16,21.90
2016,08,26,13,17,21.90
2016,08,26,13,18,22.00
2016,08,26,13,19,22.00
2016,08,26,13,20,22.00
2016,08,26,13,21,22.00
2016,08,26,13,22,22.10
2016,08,26,13,23,22.10
2016,08,26,13,24,22.00
2016,08,26,13,25,21.90
2016,08,26,13,26,21.80
2016,08,26,13,27,21.80
2016,08,26,13,28,21.70
2016,08,26,13,29,21.70
2016,08,26,13,30,21.70
2016,08,26,13,31,21.70
2016,08,26,13,32,21.70
2016,08,26,13,33,21.70
2016,08,26,13,34,21.80
2016,08,26,13,35,21.80
2016,08,26,13,36,21.80
2016,08,26,13,37,21.90
2016,08,26,13,38,21.90
2016,08,26,13,39,21.90
2016,08,26,13,40,22.00
2016,08,26,13,41,22.00
2016,08,26,13,42,22.00
2016,08,26,13,43,22.00
2016,08,26,13,44,22.00
2016,08,26,13,45,22.10
2016,08,26,13,46,22.10
2016,08,26,13,47,22.10
2016,08,26,13,48,22.10
2016,08,26,13,49,22.00
2016,08,26,13,50,21.90
2016,08,26,13,51,21.90
2016,08,26,13,52,21.90
2016,08,26,13,53,22.00
2016,08,26,13,54,22.10
2016,08,26,13,55,22.10
2016,08,26,13,56,22.20
2016,08,26,13,57,22.30
2016,08,26,13,58,22.30
2016,08,26,13,59,22.40
2016,08,26,14,00,22.40
2016,08,26,14,01,22.40
2016,08,26,14,02,22.40
2016,08,26,14,03,22.40
2016,08,26,14,04,22.30
2016,08,26,14,05,22.30
2016,08,26,14,06,22.30
2016,08,26,14,07,22.30
2016,08,26,14,08,22.20
2016,08,26,14,09,22.20
2016,08,26,14,10,22.10
2016,08,26,14,11,22.10
2016,08,26,14,12,22.00
2016,08,26,14,13,22.00
2016,08,26,14,14,21.90
2016,08,26,14,15,21.90
2016,08,26,14,16,21.90
2016,08,26,14,17,21.90
2016,08,26,14,18,21.90
2016,08,26,14,19,21.80
2016,08,26,14,20,21.70
2016,08,26,14,21,21.50
2016,08,26,14,22,21.10
2016,08,26,14,23,20.80
2016,08,26,14,24,20.40
2016,08,26,14,25,20.00
2016,08,26,14,26,19.70
2016,08,26,14,27,19.40
2016,08,26,14,28,19.10
2016,08,26,14,29,19.00
2016,08,26,14,30,18.80
2016,08,26,14,31,18.70
2016,08,26,14,32,18.70
2016,08,26,14,33,18.60
2016,08,26,14,34,18.60
2016,08,26,14,35,18.60
2016,08,26,14,36,18.60
2016,08,26,14,37,18.60
2016,08,26,14,38,18.60
2016,08,26,14,39,18.60
2016,08,26,14,40,18.70
2016,08,26,14,41,18.70
2016,08,26,14,42,18.70
2016,08,26,14,43,18.70
2016,08,26,14,44,18.80
2016,08,26,14,45,18.80
2016,08,26,14,46,18.80
2016,08,26,14,47,18.80
2016,08,26,14,48,18.80
2016,08,26,14,49,18.80
2016,08,26,14,50,18.90
2016,08,26,14,51,19.00
2016,08,26,14,52,19.20
2016,08,26,14,53,19.40
2016,08,26,14,54,19.70
2016,08,26,14,55,20.00
2016,08,26,14,56,20.30
2016,08,26,14,57,20.60
2016,08,26,14,58,20.90
2016,08,26,14,59,21.20
2016,08,26,15,00,21.40
2016,08,26,15,01,21.70
2016,08,26,15,02,21.90
2016,08,26,15,03,22.10
2016,08,26,15,04,22.20
2016,08,26,15,05,22.40
2016,08,26,15,06,22.50
2016,08,26,15,07,22.60
2016,08,26,15,08,22.70
2016,08,26,15,09,22.70
2016,08,26,15,10,22.70
2016,08,26,15,11,22.70
2016,08,26,15,12,22.60
2016,08,26,15,13,22.50
2016,08,26,15,14,22.40
2016,08,26,15,15,22.20
2016,08,26,15,16,22.00
2016,08,26,15,17,21.70
2016,08,26,15,18,21.50
2016,08,26,15,19,21.30
2016,08,26,15,20,21.10
2016,08,26,15,21,20.90
2016,08,26,15,22,20.70
2016,08,26,15,23,20.70
2016,08,26,15,24,20.60
2016,08,26,15,25,20.70
2016,08,26,15,26,20.90
2016,08,26,15,27,21.10
2016,08,26,15,28,21.40
2016,08,26,15,29,21.70
2016,08,26,15,30,21.90
2016,08,26,15,31,22.00
2016,08,26,15,32,22.10
2016,08,26,15,33,22.00
2016,08,26,15,34,21.90
2016,08,26,15,35,21.70
2016,08,26,15,36,21.40
2016,08,26,15,37,21.20
2016,08,26,15,38,21.00
2016,08,26,15,39,20.80
2016,08,26,15,40,20.60
2016,08,26,15,41,20.60
2016,08,26,15,42,20.50
2016,08,26,15,43,20.40
2016,08,26,15,44,20.30
2016,08,26,15,45,20.30
2016,08,26,15,46,20.30
2016,08,26,15,47,20.40
2016,08,26,15,48,20.40
2016,08,26,15,49,20.40
2016,08,26,15,50,20.40
2016,08,26,15,51,20.40
2016,08,26,15,52,20.30
2016,08,26,15,53,20.30
2016,08,26,15,54,20.10
2016,08,26,15,55,20.00
2016,08,26,15,56,19.90
2016,08,26,15,57,19.80
2016,08,26,15,58,19.70
2016,08,26,15,59,19.60
2016,08,26,16,00,19.60
2016,08,26,16,01,19.50
2016,08,26,16,02,19.40
2016,08,26,16,03,19.40
2016,08,26,16,04,19.30
2016,08,26,16,05,19.30
2016,08,26,16,06,19.20
2016,08,26,16,07,19.20
2016,08,26,16,08,19.10
2016,08,26,16,09,19.00
2016,08,26,16,10,18.90
2016,08,26,16,11,18.80
2016,08,26,16,12,18.80
2016,08,26,16,13,18.80
2016,08,26,16,14,18.80
2016,08,26,16,15,18.70
2016,08,26,16,16,18.70
2016,08,26,16,17,18.70
2016,08,26,16,18,18.80
2016,08,26,16,19,18.90
2016,08,26,16,20,19.20
2016,08,26,16,21,19.60
2016,08,26,16,22,19.90
2016,08,26,16,23,20.40
2016,08,26,16,24,20.70
2016,08,26,16,25,21.00
2016,08,26,16,26,21.20
2016,08,26,16,27,21.20
2016,08,26,16,28,21.20
2016,08,26,16,29,21.00
2016,08,26,16,30,20.80
2016,08,26,16,31,20.70
2016,08,26,16,32,20.50
2016,08,26,16,33,20.40
2016,08,26,16,34,20.30
2016,08,26,16,35,20.30
2016,08,26,16,36,20.30
2016,08,26,16,37,20.30
2016,08,26,16,38,20.20
2016,08,26,16,39,20.20
2016,08,26,16,40,20.10
2016,08,26,16,41,20.10
2016,08,26,16,42,20.20
2016,08,26,16,43,20.30
2016,08,26,16,44,20.60
2016,08,26,16,45,21.00
2016,08,26,16,46,21.40
2016,08,26,16,47,22.00
2016,08,26,16,48,22.50
2016,08,26,16,49,22.90
2016,08,26,16,50,23.30
2016,08,26,16,51,23.70
2016,08,26,16,52,24.00
2016,08,26,16,53,24.20
2016,08,26,16,54,24.40
2016,08,26,16,55,24.60
2016,08,26,16,56,24.70
2016,08,26,16,57,24.80
2016,08,26,16,58,24.90
2016,08,26,16,59,24.90
2016,08,26,17,00,25.00
2016,08,26,17,01,25.00
2016,08,26,17,02,25.00
2016,08,26,17,03,24.90
2016,08,26,17,04,24.90
2016,08,26,17,05,24.90
2016,08,26,17,06,24.80
2016,08,26,17,07,24.80
2016,08,26,17,08,24.80
2016,08,26,17,09,24.70
2016,08,26,17,10,24.70
2016,08,26,17,11,24.70
2016,08,26,17,12,24.60
2016,08,26,17,13,24.60
2016,08,26,17,14,24.60
2016,08,26,17,15,24.50
2016,08,26,17,16,24.50
2016,08,26,17,17,24.50
2016,08,26,17,18,24.50
2016,08,26,17,19,24.60